Hourly Weather Roundup
Issued by NWS Central Illinois

Home | Current Version | Previous Version | Text Only | Print | Product List | Glossary On
Versions: 1 2 3 4 5 6 7 8 9 10 11 12 13 14 15 16 17 18 19 20 21 22 23 24 25 26 27 28 29 30 31 32 33 34 35 36 37 38 39 40 41 42 43 44 45 46 47 48 49 50
000
NZUS43 KILX 201710
HWRILX

Area Weather Roundup
National Weather Service Lincoln IL
1200 PM CDT FRI APR 20 2018

NOTE:  "FAIR" indicates few or no clouds below 12,000 feet, with
       no sigificant weather and/or obstructions to visibility.


CITY           SKY/WX    TMP DP  RH WIND       PRES   REMARKS
Bloomington    FAIR      55  26  32 E9        30.51F
Champaign      FAIR      57  21  24 NE10      30.50F
Danville       FAIR      54  24  31 E5        30.49F
Decatur        FAIR      57  21  24 E13       30.50F
Effingham      FAIR      56  27  33 NE10      30.51F
Flora          FAIR      57  23  27 E13       30.50S
Galesburg      FAIR      59  24  26 E6        30.52F
Jacksonville   SUNNY     55  22  28 SE13      30.51S
Lacon          FAIR      55  21  27 SE6       30.51F
Lawrenceville  FAIR      57  21  24 E9        30.49F
Litchfield     SUNNY     56  24  28 SE7       30.50S
$$


CITY           SKY/WX    TMP DP  RH WIND       PRES   REMARKS
Lincoln        FAIR      57  24  28 E9        30.51F
Macomb         SUNNY     55  19  23 S7G17     30.53F
Mattoon        FAIR     N/A N/A N/A MISG      30.49F
Mt Carmel AP   FAIR      55  21  26 E7        30.49F
Olney-Noble AP FAIR      55  14  19 E12       30.49F
Paris AP       FAIR      55  26  32 NE7G18    30.51F
Peoria         FAIR      57  24  28 SE8       30.52S
Pontiac        FAIR      56  24  29 NE7       30.52F
Rantoul        FAIR      56  25  30 E8        30.51F
Robinson       FAIR      56  22  27 NE10      30.50F
Springfield    FAIR      58  22  24 E8G16     30.51F
Taylorville    FAIR      55  20  25 E14G20    30.51S
$$

...REGIONAL REPORTS...


CITY           SKY/WX    TMP DP  RH WIND       PRES   REMARKS
Chicago O`Hare FAIR      56  19  23 VRB3      30.51S
Kankakee       FAIR      55  24  29 N3        30.52F
La Salle       FAIR      56  23  27 CALM      30.52F
Moline         FAIR      56  22  26 SE9       30.50F
Mount Sterling SUNNY     54  24  31 SE12      30.50F
Mount Vernon   FAIR      57  24  28 E12G18    30.48F
Pittsfield     SUNNY     56  19  24 SE9       30.51F
Quincy         SUNNY     55  21  26 E9        30.50S
Rockford       PTSUNNY   55  19  24 NW7       30.52F
$$


CITY           SKY/WX    TMP DP  RH WIND       PRES   REMARKS
Burlington     SUNNY     56  22  26 SE9       30.50F
Cedar Rapids   FAIR      54  26  34 NE3       30.49F
Des Moines     CLOUDY    55  29  36 S6        30.46F
Kirksville     CLOUDY    57  27  31 SE13G20   30.47F
Ottumwa        CLOUDY    55  26  32 SE7       30.48F
St Louis       MOSUNNY   57  20  23 SE13      30.49F
$$


CITY           SKY/WX    TMP DP  RH WIND       PRES   REMARKS
Terre Haute    FAIR      57  19  22 E12       30.50S
Evansville     FAIR      57  24  28 E12G20    30.48F
Indianapolis   FAIR      55  16  21 NE13      30.49F
Lafayette      FAIR      54  22  28 E9        30.51F
Madison        PTSUNNY   52  24  33 VRB3      30.50F
Milwaukee      PTSUNNY   48  25  40 SE9       30.52S
$$






USA.gov is the U.S. government's official web portal to all federal, state and local government web resources and services.